Terug naar catalogus

SL-8 R/B

ActiefPO
NORAD 15293·ROCKET BODY·🇷🇺 Russia

Gelanceerd Sep 13, 1984 vanaf Plesetsk Cosmodrome

Loading…

Volgende Passages (komende 24 uur)

TLE

VersSource: Space-Track

Epoch: Sep 14, 2026, 22:29 UTC

1 15293U 84100B   26257.93689642  .00000190  00000-0  18199-3 0  9993
2 15293  82.9365  65.3765 0022343   5.9302 354.2115 13.75434611 51451

Volg SL-8 R/B in realtime met AllMySat

Download on the App Store